KX4BE Weather Reports


Display with metric or nautical units.
time (UTC)temp
F
wind
direction
speed
MPH
gust
MPH
rain 1hr
in
rain 24hr
in
rain mn
in
humidity
%
barometer
mb
20260902005330 86 38 0.0 0.0 0.00 0.00 0.00 69 1020.4
20260902004848 86 38 0.0 1.0 0.00 0.00 0.00 69 1020.3
20260902004347 86 38 0.0 1.0 0.00 0.00 0.00 68 1020.4
20260902003844 86 38 0.0 1.0 0.00 0.00 0.00 68 1020.4
20260902003340 86 38 0.0 2.0 0.00 0.00 0.00 68 1020.4
20260902002838 87 38 1.0 2.0 0.00 0.00 0.00 67 1020.3
20260902002341 87 38 0.0 0.0 0.00 0.00 0.00 67 1020.3
20260902001838 87 38 0.0 0.0 0.00 0.00 0.00 66 1020.2
20260902001338 87 38 0.0 1.0 0.00 0.00 0.00 66 1020.2
20260902000853 88 38 0.0 1.0 0.00 0.00 0.00 65 1020.4
20260902000348 88 38 0.0 1.0 0.00 0.00 0.00 65 1020.3
20260901235843 88 38 0.0 1.0 0.00 0.00 0.00 65 1020.2
20260901235341 89 38 0.0 1.0 0.00 0.00 0.00 65 1020.3
20260901234838 89 38 0.0 1.0 0.00 0.00 0.00 64 1020.2
20260901234338 89 38 0.0 1.0 0.00 0.00 0.00 63 1020.4
20260901233915 90 38 0.0 1.0 0.00 0.00 0.00 63 1020.5
20260901233408 90 38 0.0 1.0 0.00 0.00 0.00 63 1020.4
20260901232843 90 38 0.0 1.0 0.00 0.00 0.00 62 1020.5
20260901232341 91 38 0.0 0.0 0.00 0.00 0.00 61 1020.5
20260901231839 91 38 0.0 1.0 0.00 0.00 0.00 60 1020.5
20260901231338 91 38 0.0 1.0 0.00 0.00 0.00 60 1020.5
20260901230832 92 38 0.0 3.0 0.00 0.00 0.00 58 1020.3
20260901230348 92 38 2.0 3.0 0.00 0.00 0.00 57 1020.3
20260901225349 92 225 0.0 2.0 0.00 0.00 0.00 57 1020.3
20260901224830 92 225 1.0 2.0 0.00 0.00 0.00 58 1020.4
20260901224349 92 224 0.0 1.0 0.00 0.00 0.00 57 1020.4
20260901223844 93 224 0.0 2.0 0.00 0.00 0.00 58 1020.4
20260901223340 92 224 327.0 327.0 0.00 0.00 0.00 57 1019.8
20260901222837 93 224 0.0 3.0 0.00 0.00 0.00 57 1020.2
20260901222337 93 222 1.0 3.0 0.00 0.00 0.00 57 1020.2
20260901221834 93 234 1.0 2.0 0.00 0.00 0.00 56 1020.2
20260901221353 93 232 0.0 2.0 0.00 0.00 0.00 57 1020.1
20260901220848 93 232 1.0 2.0 0.00 0.00 0.00 56 1020.2
20260901215850 93 309 0.0 2.0 0.00 0.00 0.00 55 1020.2
20260901215345 93 309 0.0 2.0 0.00 0.00 0.00 55 1020.1
20260901214841 93 309 0.0 2.0 0.00 0.00 0.00 57 1020.3
20260901214341 93 309 0.0 3.0 0.00 0.00 0.00 56 1020.2
20260901213840 93 309 1.0 4.0 0.00 0.00 0.00 55 1020.3
20260901213335 93 49 1.0 4.0 0.00 0.00 0.00 57 1020.4
20260901212838 94 17 2.0 3.0 0.00 0.00 0.00 56 1020.4
20260901212337 94 355 0.0 3.0 0.00 0.00 0.00 56 1020.4
20260901211852 94 5 0.0 2.0 0.00 0.00 0.00 57 1020.4
20260901211330 94 5 0.0 2.0 0.00 0.00 0.00 56 1020.4
20260901210845 95 26 1.0 2.0 0.00 0.00 0.00 55 1020.4
20260901210341 95 5 0.0 5.0 0.00 0.00 0.00 53 1020.5
20260901205839 96 152 1.0 5.0 0.00 0.00 0.00 51 1020.4
20260901205337 96 74 1.0 6.0 0.00 0.00 0.00 52 1020.4
20260901204833 96 360 2.0 6.0 0.00 0.00 0.00 53 1020.4
20260901204352 95 305 1.0 3.0 0.00 0.00 0.00 55 1020.5
20260901203911 95 113 2.0 3.0 0.00 0.00 0.00 54 1020.5
20260901203336 94 338 0.0 2.0 0.00 0.00 0.00 55 1020.6
20260901202834 94 339 1.0 2.0 0.00 0.00 0.00 55 1020.6
20260901202334 94 340 0.0 5.0 0.00 0.00 0.00 55 1020.6
20260901201850 94 74 1.0 5.0 0.00 0.00 0.00 57 1020.8
20260901201347 94 74 2.0 5.0 0.00 0.00 0.00 54 1020.8
20260901200904 95 39 3.0 6.0 0.00 0.00 0.00 53 1020.9
20260901200339 95 71 2.0 6.0 0.00 0.00 0.00 53 1020.9
20260901195856 96 342 1.0 8.0 0.00 0.00 0.00 52 1020.9
20260901195334 96 117 4.0 7.0 0.00 0.00 0.00 51 1020.9
20260901194832 97 71 2.0 8.0 0.00 0.00 0.00 51 1021.0
20260901194411 97 80 3.0 8.0 0.00 0.00 0.00 52 1021.0
20260901193904 97 169 2.0 7.0 0.00 0.00 0.00 52 1021.2
20260901193338 96 155 2.0 7.0 0.00 0.00 0.00 52 1021.2
20260901192840 96 226 2.0 5.0 0.00 0.00 0.00 52 1021.3
20260901192359 95 153 2.0 6.0 0.00 0.00 0.00 53 1021.4
20260901191833 95 211 2.0 6.0 0.00 0.00 0.00 54 1021.4
20260901191332 94 16 1.0 5.0 0.00 0.00 0.00 56 1021.5
20260901190848 93 25 2.0 4.0 0.00 0.00 0.00 56 1021.6
20260901185829 92 190 2.0 3.0 0.00 0.00 0.00 60 1021.8
20260901185409 92 44 1.0 2.0 0.00 0.00 0.00 59 1021.8
20260901184843 91 43 0.0 1.0 0.00 0.00 0.00 63 1021.9
20260901184342 91 43 0.0 2.0 0.00 0.00 0.00 63 1022.0
20260901183858 91 44 1.0 2.0 0.00 0.00 0.00 61 1022.0
20260901183332 92 44 0.0 1.0 0.00 0.00 0.00 61 1021.9
20260901182849 92 44 0.0 6.0 0.00 0.00 0.00 60 1022.1
20260901182349 93 80 2.0 6.0 0.00 0.00 0.00 58 1022.0
20260901181846 93 21 2.0 4.0 0.00 0.00 0.00 58 1022.0
20260901181343 95 5 2.0 4.0 0.00 0.00 0.00 56 1022.0
20260901180841 95 128 1.0 7.0 0.00 0.00 0.00 56 1022.1
20260901180357 94 125 3.0 7.0 0.00 0.00 0.00 57 1022.1
20260901175849 94 96 2.0 4.0 0.00 0.00 0.00 59 1022.1
20260901175333 93 109 2.0 4.0 0.00 0.00 0.00 59 1022.2
20260901174831 92 121 2.0 4.0 0.00 0.00 0.00 61 1022.2
20260901174350 92 21 0.0 3.0 0.00 0.00 0.00 62 1022.2
20260901173848 92 21 1.0 4.0 0.00 0.00 0.00 61 1022.4
20260901173343 92 304 1.0 4.0 0.00 0.00 0.00 62 1022.5
20260901172858 93 71 1.0 3.0 0.00 0.00 0.00 61 1022.5
20260901172336 93 351 1.0 4.0 0.00 0.00 0.00 61 1022.5
20260901171835 93 323 1.0 4.0 0.00 0.00 0.00 62 1022.5
20260901171334 92 180 1.0 5.0 0.00 0.00 0.00 60 1022.6
20260901170851 92 184 1.0 8.0 0.00 0.00 0.00 61 1022.8
20260901170346 92 238 3.0 8.0 0.00 0.00 0.00 62 1022.8
20260901165843 92 349 1.0 5.0 0.00 0.00 0.00 62 1022.8
20260901165340 92 329 1.0 5.0 0.00 0.00 0.00 63 1022.9
20260901164839 92 169 1.0 6.0 0.00 0.00 0.00 64 1023.0
20260901164339 91 248 2.0 6.0 0.00 0.00 0.00 64 1022.9
20260901163837 91 203 2.0 4.0 0.00 0.00 0.00 65 1023.1
20260901163353 91 46 1.0 4.0 0.00 0.00 0.00 64 1023.1
20260901162832 91 19 3.0 4.0 0.00 0.00 0.00 62 1023.2
20260901162408 92 26 2.0 4.0 0.00 0.00 0.00 63 1023.2
20260901161847 92 117 1.0 4.0 0.00 0.00 0.00 63 1023.2
20260901161346 92 51 2.0 4.0 0.00 0.00 0.00 65 1023.3
20260901160901 91 43 3.0 4.0 0.00 0.00 0.00 65 1023.3
20260901160335 91 360 2.0 4.0 0.00 0.00 0.00 65 1023.3
20260901155832 91 333 2.0 6.0 0.00 0.00 0.00 65 1023.4
20260901155352 90 113 3.0 7.0 0.00 0.00 0.00 66 1023.5
20260901154846 90 124 2.0 8.0 0.00 0.00 0.00 66 1023.5
20260901154345 90 87 4.0 7.0 0.00 0.00 0.00 66 1023.6
20260901153843 90 153 4.0 6.0 0.00 0.00 0.00 66 1023.6
20260901153359 90 75 2.0 5.0 0.00 0.00 0.00 67 1023.6
20260901152834 89 101 2.0 7.0 0.00 0.00 0.00 69 1023.7
20260901152333 89 144 2.0 7.0 0.00 0.00 0.00 68 1023.8
20260901151851 89 13 2.0 4.0 0.00 0.00 0.00 69 1023.7
20260901151408 89 57 2.0 4.0 0.00 0.00 0.00 67 1023.8
20260901150845 88 20 1.0 4.0 0.00 0.00 0.00 70 1023.8
20260901150340 88 96 2.0 4.0 0.00 0.00 0.00 70 1023.7
20260901145857 87 44 2.0 4.0 0.00 0.00 0.00 70 1023.7
20260901145335 87 75 2.0 6.0 0.00 0.00 0.00 71 1023.7
20260901144853 86 96 2.0 6.0 0.00 0.00 0.00 72 1023.8
20260901144352 86 321 1.0 4.0 0.00 0.00 0.00 72 1023.8
20260901143847 86 321 2.0 4.0 0.00 0.00 0.00 73 1023.9
20260901143343 86 311 1.0 6.0 0.00 0.00 0.00 73 1023.7
20260901142844 86 130 3.0 6.0 0.00 0.00 0.00 73 1023.6
20260901142344 86 121 2.0 4.0 0.00 0.00 0.00 73 1023.8
20260901141840 86 80 2.0 4.0 0.00 0.00 0.00 73 1023.8
20260901141339 86 13 2.0 4.0 0.00 0.00 0.00 73 1023.7
20260901140851 85 74 1.0 3.0 0.00 0.00 0.00 74 1023.7
20260901140407 85 25 2.0 4.0 0.00 0.00 0.00 74 1023.9
20260901135840 85 25 2.0 5.0 0.00 0.00 0.00 75 1023.8
20260901135339 84 64 2.0 4.0 0.00 0.00 0.00 76 1023.8
20260901134836 84 87 1.0 3.0 0.00 0.00 0.00 76 1023.7
20260901134335 84 87 1.0 3.0 0.00 0.00 0.00 75 1023.6
20260901133852 83 88 0.0 2.0 0.00 0.00 0.00 76 1023.7
20260901133346 83 88 0.0 3.0 0.00 0.00 0.00 77 1023.7
20260901132845 83 88 0.0 3.0 0.00 0.00 0.00 77 1023.7
20260901132344 82 88 1.0 3.0 0.00 0.00 0.00 78 1023.6
20260901131842 82 103 1.0 3.0 0.00 0.00 0.00 79 1023.7
20260901131341 81 103 2.0 3.0 0.00 0.00 0.00 80 1023.7
20260901130841 80 104 1.0 3.0 0.00 0.00 0.00 81 1023.8
20260901130357 79 138 1.0 2.0 0.00 0.00 0.00 83 1023.7
20260901125831 78 138 0.0 3.0 0.00 0.00 0.00 86 1023.7
20260901125351 77 138 1.0 3.0 0.00 0.00 0.00 88 1023.8
20260901124846 76 355 1.0 2.0 0.00 0.00 0.00 89 1023.7
20260901124344 75 350 1.0 1.0 0.00 0.00 0.00 90 1023.7
20260901123840 75 350 0.0 1.0 0.00 0.00 0.00 91 1023.6
20260901123336 74 350 0.0 1.0 0.00 0.00 0.00 91 1023.6
20260901122851 74 350 0.0 1.0 0.00 0.00 0.00 91 1023.5
20260901122349 74 350 0.0 2.0 0.00 0.00 0.00 92 1023.6
20260901121845 74 350 1.0 2.0 0.00 0.00 0.00 92 1023.5
20260901121344 73 350 1.0 1.0 0.00 0.00 0.00 92 1023.4
20260901120841 73 350 0.0 1.0 0.00 0.00 0.00 93 1023.4
20260901120356 73 351 0.0 0.0 0.00 0.00 0.00 94 1023.3
20260901115833 72 351 0.0 0.0 0.00 0.00 0.00 95 1023.2
20260901115351 72 351 0.0 0.0 0.00 0.00 0.00 95 1023.1
20260901114847 72 351 0.0 0.0 0.00 0.00 0.00 95 1023.0
20260901114346 72 351 0.0 0.0 0.00 0.00 0.00 95 1022.9
20260901113843 72 351 0.0 0.0 0.00 0.00 0.00 95 1022.8
20260901113339 72 351 0.0 0.0 0.00 0.00 0.00 95 1022.8
20260901112839 72 351 0.0 0.0 0.00 0.00 0.00 95 1022.7
20260901112338 72 351 0.0 0.0 0.00 0.00 0.00 95 1022.6
20260901111834 72 351 0.0 0.0 0.00 0.00 0.00 95 1022.6
20260901111333 72 351 0.0 0.0 0.00 0.00 0.00 95 1022.4
20260901110850 72 351 0.0 0.0 0.00 0.00 0.00 95 1022.4
20260901110345 72 351 0.0 0.0 0.00 0.00 0.00 95 1022.5
20260901105903 72 351 0.0 0.0 0.00 0.00 0.00 95 1022.3
20260901105341 72 351 0.0 0.0 0.00 0.00 0.00 95 1022.2
20260901104837 72 351 0.0 0.0 0.00 0.00 0.00 95 1022.2
20260901104335 72 351 0.0 0.0 0.00 0.00 0.00 95 1022.3
20260901103854 72 351 0.0 0.0 0.00 0.00 0.00 95 1022.2
20260901103347 72 351 0.0 0.0 0.00 0.00 0.00 95 1022.2
20260901102845 72 351 0.0 0.0 0.00 0.00 0.00 94 1022.2
20260901102344 72 350 0.0 0.0 0.00 0.00 0.00 94 1022.2
20260901101841 72 351 0.0 0.0 0.00 0.00 0.00 94 1022.1
20260901101337 72 351 0.0 0.0 0.00 0.00 0.00 94 1022.2
20260901100836 72 351 0.0 0.0 0.00 0.00 0.00 94 1022.0
20260901100332 72 351 0.0 0.0 0.00 0.00 0.00 94 1022.0
20260901095847 73 351 0.0 0.0 0.00 0.00 0.00 94 1022.0
20260901095347 73 351 0.0 0.0 0.00 0.00 0.00 93 1022.0
20260901094843 73 351 0.0 0.0 0.00 0.00 0.00 93 1022.0
20260901094402 73 351 0.0 0.0 0.00 0.00 0.00 93 1022.0
20260901093856 73 351 0.0 0.0 0.00 0.00 0.00 94 1022.1
20260901093331 73 351 0.0 0.0 0.00 0.00 0.00 94 1022.0
20260901092848 73 351 0.0 0.0 0.00 0.00 0.00 94 1022.0
20260901092346 73 351 0.0 0.0 0.00 0.00 0.00 93 1022.0
20260901091844 73 351 0.0 0.0 0.00 0.00 0.00 93 1021.9
20260901091403 73 351 0.0 0.0 0.00 0.00 0.00 93 1021.9
20260901090836 73 351 0.0 0.0 0.00 0.00 0.00 93 1021.8
20260901090332 73 351 0.0 0.0 0.00 0.00 0.00 92 1021.7
20260901085830 73 351 0.0 0.0 0.00 0.00 0.00 92 1021.8
20260901085331 73 351 0.0 0.0 0.00 0.00 0.00 92 1021.7
20260901084848 73 351 0.0 0.0 0.00 0.00 0.00 92 1021.7
20260901084347 73 351 0.0 0.0 0.00 0.00 0.00 92 1021.7
20260901083845 73 351 0.0 0.0 0.00 0.00 0.00 91 1021.6
20260901083358 74 351 0.0 0.0 0.00 0.00 0.00 91 1021.6
20260901082837 74 351 0.0 0.0 0.00 0.00 0.00 92 1021.6
20260901082336 74 351 0.0 0.0 0.00 0.00 0.00 92 1021.7
20260901081832 74 351 0.0 0.0 0.00 0.00 0.00 92 1021.7
20260901081351 74 351 0.0 0.0 0.00 0.00 0.00 92 1021.5
20260901080847 74 351 0.0 0.0 0.00 0.00 0.00 91 1021.6
20260901080343 74 351 0.0 0.0 0.00 0.00 0.00 91 1021.6
20260901075837 74 351 0.0 0.0 0.00 0.00 0.00 91 1021.7
20260901075336 74 351 0.0 0.0 0.00 0.00 0.00 91 1021.6
20260901074834 74 351 0.0 0.0 0.00 0.00 0.00 91 1021.6
20260901074333 74 351 0.0 0.0 0.00 0.00 0.00 91 1021.5
20260901073850 74 351 0.0 0.0 0.00 0.00 0.00 91 1021.5
20260901073406 74 351 0.0 0.0 0.00 0.00 0.00 91 1021.4
20260901072840 74 351 0.0 0.0 0.00 0.00 0.00 90 1021.4
20260901072339 74 351 0.0 0.0 0.00 0.00 0.00 90 1021.4
20260901071837 74 351 0.0 0.0 0.00 0.00 0.00 89 1021.5
20260901071336 75 351 0.0 0.0 0.00 0.00 0.00 89 1021.7
20260901070838 75 351 0.0 0.0 0.00 0.00 0.00 89 1021.8
20260901070353 75 351 0.0 0.0 0.00 0.00 0.00 89 1021.7
20260901065905 75 351 0.0 0.0 0.00 0.00 0.00 89 1021.8
20260901065345 75 351 0.0 0.0 0.00 0.00 0.00 89 1021.8
20260901064841 75 351 0.0 0.0 0.00 0.00 0.00 88 1021.8
20260901064340 75 351 0.0 0.0 0.00 0.00 0.00 88 1021.8
20260901063837 75 351 0.0 0.0 0.00 0.00 0.00 88 1021.8
20260901063333 76 351 0.0 0.0 0.00 0.00 0.00 88 1021.9
20260901062829 76 351 0.0 0.0 0.00 0.00 0.00 88 1021.9
20260901062349 76 351 0.0 0.0 0.00 0.00 0.00 88 1022.0
20260901061844 76 351 0.0 0.0 0.00 0.00 0.00 87 1022.2
20260901061404 76 351 0.0 0.0 0.00 0.00 0.00 87 1022.0
20260901060840 76 351 0.0 0.0 0.00 0.00 0.00 87 1022.0
20260901060336 76 351 0.0 0.0 0.00 0.00 0.00 87 1022.0
20260901055833 76 351 0.0 0.0 0.00 0.00 0.00 86 1022.0
20260901055333 76 351 0.0 0.0 0.00 0.00 0.00 86 1022.0
20260901054847 76 351 0.0 0.0 0.00 0.00 0.00 86 1022.0
20260901054347 76 351 0.0 0.0 0.00 0.00 0.00 86 1021.9
20260901053843 77 351 0.0 0.0 0.00 0.00 0.00 86 1022.0
20260901053343 77 351 0.0 0.0 0.00 0.00 0.00 85 1022.0
20260901052839 77 351 0.0 0.0 0.00 0.00 0.00 85 1022.0
20260901052339 77 351 0.0 0.0 0.00 0.00 0.00 85 1022.0
20260901051835 77 351 0.0 0.0 0.00 0.00 0.00 85 1022.0
20260901051331 77 351 0.0 0.0 0.00 0.00 0.00 84 1022.0
20260901050848 77 351 0.0 0.0 0.00 0.00 0.00 84 1022.0
20260901050344 77 350 0.0 0.0 0.00 0.00 0.00 84 1022.0
20260901045842 77 351 0.0 0.0 0.00 0.00 0.00 84 1022.0
20260901045341 77 351 0.0 0.0 0.00 0.00 0.00 83 1021.9
20260901044839 77 351 0.0 0.0 0.00 0.00 0.00 83 1021.9
20260901044359 77 351 0.0 0.0 0.00 0.00 0.00 83 1021.9
20260901043833 78 350 0.0 0.0 0.00 0.00 0.00 83 1021.9
20260901043348 78 351 0.0 0.0 0.00 0.00 0.00 83 1021.9
20260901042846 78 351 0.0 0.0 0.00 0.00 0.00 83 1021.7
20260901042405 78 351 0.0 0.0 0.00 0.00 0.00 82 1021.8
20260901041843 78 351 0.0 0.0 0.00 0.00 0.00 82 1021.8
20260901041342 78 351 0.0 0.0 0.00 0.00 0.00 82 1021.9
20260901040857 78 351 0.0 0.0 0.00 0.00 0.00 82 1021.9
20260901040336 78 351 0.0 0.0 0.00 0.00 0.00 81 1021.9
20260901035834 78 351 0.0 0.0 0.00 0.00 0.00 81 1021.9
20260901035332 78 351 0.0 0.0 0.00 0.00 0.00 81 1021.9
20260901034909 79 351 0.0 0.0 0.00 0.00 0.00 81 1021.9
20260901034347 79 351 0.0 0.0 0.00 0.00 0.00 81 1021.9
20260901033845 79 351 0.0 0.0 0.00 0.00 0.00 80 1021.9
20260901033359 79 351 0.0 0.0 0.00 0.00 0.00 80 1021.9
20260901032833 80 351 0.0 0.0 0.00 0.00 0.00 79 1021.8
20260901032332 80 351 0.0 0.0 0.00 0.00 0.00 79 1021.8
20260901031831 80 351 0.0 0.0 0.00 0.00 0.00 78 1021.8
20260901030842 80 351 0.0 0.0 0.00 0.00 0.00 77 1021.9
20260901030338 81 351 0.0 0.0 0.00 0.00 0.00 76 1021.9
20260901025831 81 351 0.0 0.0 0.00 0.00 0.00 76 1022.0
20260901025331 81 351 0.0 0.0 0.00 0.00 0.00 76 1022.1
20260901024849 81 351 0.0 0.0 0.00 0.00 0.00 76 1022.1
20260901024348 81 351 0.0 0.0 0.00 0.00 0.00 76 1021.9
20260901023844 81 351 0.0 0.0 0.00 0.00 0.00 76 1022.0
20260901023340 81 351 0.0 0.0 0.00 0.00 0.00 76 1021.9
20260901022836 81 350 0.0 0.0 0.00 0.00 0.00 76 1021.9
20260901022355 81 351 0.0 0.0 0.00 0.00 0.00 76 1021.9
20260901021852 81 350 0.0 0.0 0.00 0.00 0.00 76 1021.8
20260901021349 81 351 0.0 0.0 0.00 0.00 0.00 75 1021.8
20260901020847 81 351 0.0 1.0 0.00 0.00 0.00 75 1021.8
20260901020343 82 351 0.0 1.0 0.00 0.00 0.00 74 1021.7
20260901015859 82 351 1.0 1.0 0.00 0.00 0.00 73 1021.7
20260901015334 82 351 1.0 1.0 0.00 0.00 0.00 73 1021.5
20260901014836 82 350 0.0 1.0 0.00 0.00 0.00 73 1021.5
20260901014334 82 351 0.0 2.0 0.00 0.00 0.00 73 1021.5
20260901013853 82 351 0.0 2.0 0.00 0.00 0.00 73 1021.4
20260901013348 82 351 1.0 2.0 0.00 0.00 0.00 72 1021.4
20260901012847 83 351 1.0 3.0 0.00 0.00 0.00 72 1021.3
20260901012406 83 355 0.0 3.0 0.00 0.00 0.00 70 1021.4
20260901011839 83 355 0.0 1.0 0.00 0.00 0.00 70 1021.3
20260901011338 83 355 0.0 1.0 0.00 0.00 0.00 70 1021.3
20260901010835 83 355 1.0 1.0 0.00 0.00 0.00 69 1021.2
20260901010331 84 355 0.0 0.0 0.00 0.00 0.00 69 1021.1
20260901005828 84 355 0.0 0.0 0.00 0.00 0.00 68 1021.0